Regional Weather Roundup
Issued by NWS

Home | Current Version | Previous Version | Graphics & Text | Print | Product List | Glossary On
Versions: 1 2 3 4 5 6 7 8 9 10 11 12 13 14 15 16 17 18 19 20 21 22 23 24 25 26 27 28 29 30 31 32 33 34 35 36 37 38 39 40 41 42 43 44 45 46 47 48 49 50
000
ASUS43 KIND 041709
RWRIN

WEATHER ROUNDUP FOR INDIANA
NATIONAL WEATHER SERVICE INDIANAPOLIS IN
1200 PM EST SUN DEC 04 2016

NOTE: "FAIR" INDICATES FEW OR NO CLOUDS BELOW 12,000 FEET WITH NO
SIGNIFICANT WEATHER AND/OR OBSTRUCTIONS TO VISIBILITY.

* - STATION DOES NOT REPORT WEATHER SUCH AS PRECIPITATION OR FOG.

+ - STATION NOT QUALITY CONTROLLED BY THE NATIONAL WEATHER SERVICE.
    USE DATA WITH CAUTION...ESPECIALLY DEWPOINT AND RELATIVE
    HUMIDITY OBSERVATIONS.

INZ001>003-010>013-019-020-041800-
NORTHWEST INDIANA

CITY           SKY/WX    TMP DP  RH WIND       PRES   REMARKS
GARY /AIRPORT/ LGT SNOW  36  28  75 SE7       30.06F
KNOX *+        CLOUDY    34  16  47 E7        30.06F WCI  28
LA PORTE +     FLURRIES  37  34  91 E7        30.06F
MICHIGAN CITY+ CLOUDY    34  28  80 SE5       30.06F WCI  30
MONTICELLO +   CLOUDY    37  28  72 E6        30.04F
RENSSELAER +   LGT SNOW  36  32  87 E7        30.05F
VALPARAISO     LGT SNOW  35  29  78 E8        30.06F WCI  29

$$

LMZ046-743>745-041800-
SOUTHERN LAKE MICHIGAN

STATION/POSITION TIME  TEMP    WIND        PRES    WAVE
                       AIR SEA DIR/SP/G            HT
                 (UTC) (F)     (DEG/KT/KT) (MB)    (FT)
BURNS HARBOR     1640   34     100/  8/ 11 1018.3F

$$

INZ004-005-014>016-021>024-041800-
NORTH CENTRAL INDIANA

CITY           SKY/WX    TMP DP  RH WIND       PRES   REMARKS
GOSHEN         CLOUDY    37  28  70 SE12      30.07F
LOGANSPORT +   CLOUDY    36  32  87 E10       30.05F
PERU/GRISSOM   PTSUNNY   38  32  81 SE12      30.02F
ROCHESTER +    CLOUDY    37  34  87 E8        30.05F
SOUTH BEND     CLOUDY    34  28  79 E7        30.06F WCI  28
WARSAW +       CLOUDY    36  28  75 SE5       30.07F

$$

INZ006>009-017-018-025>027-041800-
NORTHEAST INDIANA

CITY           SKY/WX    TMP DP  RH WIND       PRES   REMARKS
ANGOLA *+      SUNNY     36  28  75 SE8       30.08F
AUBURN +       CLOUDY    37  30  75 E5        30.08F
FORT WAYNE     CLOUDY    38  29  70 SE9       30.09F
HUNTINGTON +   CLOUDY    37  30  76 SE6       30.08F
KENDALLVILLE + CLOUDY    37  29  74 SE8       30.08F

$$

INZ028-029-035-036-043>045-051>053-041800-
WEST CENTRAL INDIANA

CITY           SKY/WX    TMP DP  RH WIND       PRES   REMARKS
CRAWFORDSVL +  LGT SNOW  37  35  92 E12       30.01F
GREENCASTLE +  CLOUDY    37  36  93 SE12      30.01F
LAFAYETTE      LGT RAIN  37  32  82 E8        30.03F
TERRE HAUTE    LGT RAIN  40  33  76 SE10      30.01F

$$

INZ030>032-037>040-046>048-054>057-064-065-041800-
CENTRAL INDIANA

CITY           SKY/WX    TMP DP  RH WIND       PRES   REMARKS
CP ATTERBURY + CLOUDY    41  32  70 SE7       30.04F
COLUMBUS       CLOUDY    41  34  75 SE12      30.05F
FISHERS *+     CLOUDY    37  34  87 SE6       30.04F
FRANKFORT +    RAIN      40  35  80 SE10      30.04F
GREENWOOD *+   CLOUDY    40  33  76 SE9       30.04F
INDIANAPOLIS   CLOUDY    40  31  70 SE13      30.02F
-EAGLE CREEK   CLOUDY    40  31  70 SE10      30.02F
KOKOMO +       CLOUDY    38  32  79 E13       30.04F
MARION +       CLOUDY    37  31  79 SE12      30.06F
MT COMFORT *+  CLOUDY    37  32  81 SE9       30.04F
SHELBYVILLE    CLOUDY    40  32  73 E13       30.03F
ZIONSVILLE +   LGT RAIN  37  32  81 SE8       30.03F

$$

INZ033-034-041-042-049-050-058-059-041800-
EAST CENTRAL INDIANA

CITY           SKY/WX    TMP DP  RH WIND       PRES   REMARKS
MUNCIE         CLOUDY    40  30  67 SE13      30.06F

$$

INZ060-061-067>069-081>083-085>088-041800-
SOUTHWEST INDIANA

CITY           SKY/WX    TMP DP  RH WIND       PRES   REMARKS
EVANSVILLE     CLOUDY    43  39  86 S7        30.00F
HUNTINGBURG *+ CLOUDY    45  39  81 SE12      29.99F
WASHINGTON +   RAIN      41  40  96 SE8       29.99F

$$

INZ062-063-066-070>080-084-089>092-041800-
SOUTH CENTRAL AND SOUTHEAST INDIANA

CITY           SKY/WX    TMP DP  RH WIND       PRES   REMARKS
BLOOMINGTON    CLOUDY    41  32  70 SE8       30.01F
MADISON *+     PTSUNNY   41  32  70 E9        30.06F
NORTH VERNON + CLOUDY    43  36  75 E5        30.05F
SEYMOUR +      CLOUDY    45  34  65 SE10      30.04F

$$




USA.gov is the U.S. government's official web portal to all federal, state and local government web resources and services.